Theta_e
332 331 329 328 327 326 325 325 324 323 321 316 311 313 315 311 306 305 302 297 296 297 297 298 299 298 297 297 297 298 298 298 298 298 299 299 298 298 298 297 297 296 301 314 319 318 318 317 317 317 317 317 316 316 316 316 317 316 316 315 315 315 315 315 316 316 317 317 317 317 317 317 317 318 318 319 319 319 320 321 322 323 323 323 324
332 330 329 328 327 326 325 325 324 323 321 316 311 311 313 311 306 305 304 299 297 297 297 297 298 297 297 296 297 298 298 297 298 298 298 299 298 298 298 297 297 296 298 309 317 317 317 317 317 316 316 316 316 316 315 316 317 316 315 315 315 315 314 314 315 315 315 316 315 315 315 316 316 317 317 317 317 318 318 319 320 320 321 321 321
331 330 328 328 327 326 325 325 323 322 320 315 311 311 313 311 305 304 304 299 297 298 297 297 297 297 297 296 297 298 298 298 297 298 298 298 298 297 297 297 296 296 299 306 313 316 316 316 316 316 316 316 315 315 315 315 316 316 314 314 314 314 314 314 314 314 315 314 314 314 314 315 315 315 315 315 316 316 316 317 317 318 318 319 319
330 329 328 327 326 326 325 324 323 322 319 314 312 313 314 313 309 307 305 299 297 298 297 297 297 297 297 297 297 298 298 298 298 298 298 298 297 297 296 297 296 296 299 303 309 314 315 315 315 315 315 315 315 315 314 314 315 315 314 314 313 313 313 313 313 314 314 314 313 313 314 314 314 314 314 314 314 315 315 315 316 316 316 316 317
330 329 328 327 326 326 325 324 322 320 317 315 315 314 314 315 313 311 306 300 298 298 297 297 297 297 297 297 297 297 298 298 298 297 298 298 297 297 296 296 296 296 299 302 306 311 313 314 314 315 315 315 314 314 314 313 314 315 314 314 312 312 312 312 312 313 313 313 313 313 313 313 313 313 313 313 313 313 314 314 314 314 315 315 315
329 328 327 327 326 325 324 323 322 319 316 316 316 314 314 316 315 311 306 301 299 297 297 296 296 297 297 296 296 297 298 298 298 297 298 298 297 297 296 296 296 296 298 301 305 309 311 311 311 313 314 314 314 314 314 313 314 314 314 313 312 312 312 311 312 312 313 313 312 312 312 313 312 312 312 312 312 312 312 313 313 313 313 314 314
329 328 327 326 326 325 324 322 321 318 316 316 316 315 314 315 314 310 304 301 299 297 297 297 297 297 296 296 296 296 298 298 298 297 298 298 297 297 297 296 296 296 298 300 303 306 308 309 308 311 314 313 313 313 313 313 313 313 313 312 311 311 312 311 311 312 312 312 311 312 312 312 311 311 311 311 311 311 311 311 312 312 312 312 313
328 328 327 326 325 324 323 322 320 318 317 317 316 315 314 314 312 309 304 300 299 298 297 298 297 297 296 295 295 296 297 297 297 297 297 297 296 297 297 297 296 296 297 299 302 304 307 308 304 308 313 312 312 313 312 312 312 312 312 311 311 311 311 310 311 311 311 311 311 311 311 311 310 310 310 310 310 310 310 310 310 311 311 311 312
328 327 327 325 325 324 323 321 320 318 318 317 317 316 314 312 310 306 303 300 299 298 298 298 297 297 297 295 295 295 296 296 296 296 296 296 296 296 296 297 297 297 297 298 300 301 304 304 299 305 313 312 311 311 311 312 311 312 311 311 310 310 310 310 310 311 311 310 309 309 309 309 309 309 309 308 308 309 309 309 309 309 310 310 310
328 327 326 325 324 324 323 321 320 318 317 317 316 315 313 311 308 304 302 300 299 299 298 298 297 297 296 295 295 295 295 295 295 296 295 295 295 295 296 296 296 297 297 297 298 298 299 299 298 305 312 311 310 309 310 311 311 311 311 310 310 309 309 310 310 310 309 308 308 308 308 308 308 307 307 307 307 307 308 308 308 308 309 309 309
326 326 325 324 324 323 322 321 319 318 317 316 315 313 311 309 307 303 301 300 299 298 298 298 297 297 296 296 296 295 295 295 295 295 295 295 295 295 296 296 296 296 296 296 297 297 297 297 297 302 307 307 306 307 308 309 310 310 311 310 309 309 309 309 309 308 308 307 307 307 307 306 306 306 306 306 306 307 307 307 308 308 308 309 309
324 325 324 324 323 322 322 320 319 317 316 315 313 312 311 308 306 304 301 299 299 298 298 297 297 297 296 296 296 296 296 296 296 296 295 295 295 295 295 295 296 296 296 296 296 296 296 296 295 296 299 299 302 306 307 308 309 310 310 310 309 309 308 308 307 307 306 306 306 305 305 305 305 305 305 305 305 306 306 307 307 307 307 308 308
322 323 323 323 322 321 320 319 317 316 315 314 313 312 310 308 306 304 301 300 298 298 297 297 297 296 296 296 296 296 297 296 296 296 295 295 294 294 295 295 295 295 295 295 295 295 294 294 294 293 294 296 301 305 306 306 308 309 310 310 309 309 308 307 307 306 305 305 305 304 304 304 305 305 304 304 304 305 305 306 306 306 306 306 307
319 320 321 321 320 319 319 318 316 315 314 313 312 311 309 308 305 303 301 299 298 297 297 297 297 296 296 295 296 296 295 296 296 295 295 295 295 295 295 295 295 294 295 295 294 294 294 293 293 292 293 294 297 302 304 305 306 308 309 309 309 309 308 307 306 306 305 304 304 304 304 304 304 303 303 303 304 304 304 305 305 305 305 305 305
315 316 318 318 318 317 316 316 315 313 313 311 311 310 308 307 305 303 300 298 298 297 297 297 297 296 295 296 297 296 295 294 294 295 295 295 295 295 295 294 294 294 293 294 294 293 293 293 292 292 292 292 293 296 299 302 304 307 309 309 309 309 308 307 306 305 305 304 304 303 303 302 302 302 303 303 303 304 304 304 304 304 304 304 305
310 311 313 314 315 315 314 314 313 311 311 310 310 308 307 306 304 303 300 298 297 297 297 297 297 297 296 296 296 296 299 296 292 294 295 295 295 295 295 294 293 293 293 293 293 293 293 292 292 292 291 291 291 291 293 296 300 306 308 308 309 309 308 307 306 305 305 304 304 303 302 301 301 302 302 302 303 303 303 303 303 304 304 304 304
306 307 308 309 311 312 312 312 311 310 309 308 308 308 307 306 304 302 300 298 297 297 297 297 297 297 296 298 297 297 303 298 292 294 294 294 295 294 293 293 293 293 293 292 292 292 292 291 291 291 290 290 290 290 290 291 296 304 308 308 309 308 307 306 306 305 304 304 304 303 301 301 301 301 302 302 302 302 303 303 303 303 303 303 304
303 304 305 305 307 308 309 310 310 309 307 306 306 306 306 305 304 302 300 299 298 297 297 297 297 297 296 298 298 299 301 297 295 297 294 292 294 294 293 293 293 293 292 292 292 291 291 290 290 290 290 290 290 290 290 290 293 302 307 307 308 307 306 306 305 305 304 304 304 303 302 301 301 301 301 301 301 301 302 302 302 302 302 302 303
301 301 302 302 303 304 305 306 307 307 306 305 304 304 305 304 303 302 301 300 298 296 297 297 296 296 296 297 297 298 299 297 297 300 298 295 293 292 293 293 293 293 292 292 292 291 290 290 290 290 290 290 290 289 290 289 291 298 305 307 307 307 305 304 304 304 304 303 302 303 302 301 301 300 300 300 300 301 301 301 301 302 302 302 302
301 300 300 300 301 301 302 303 304 305 305 304 303 303 303 303 303 301 300 299 298 297 297 297 296 296 296 296 296 297 298 298 297 298 301 301 295 292 293 293 292 293 292 292 292 291 291 290 290 290 289 290 290 290 290 290 289 294 302 305 306 306 305 303 302 303 303 302 301 302 302 301 300 300 300 300 300 301 301 301 301 301 301 301 301
301 300 300 300 299 299 300 300 301 302 303 303 303 302 302 302 301 301 300 299 298 297 296 296 296 296 296 296 295 296 297 298 297 296 299 301 298 293 291 292 292 292 292 292 292 291 290 290 290 289 289 289 290 290 290 290 289 290 297 303 305 305 304 302 300 300 300 299 298 300 301 301 300 300 300 300 300 300 300 300 300 301 301 301 300
299 299 299 299 299 299 299 299 299 299 300 301 301 301 301 301 301 300 299 298 298 298 297 296 296 296 296 296 295 295 296 298 297 296 296 297 298 295 290 291 292 292 292 292 291 291 290 290 290 289 289 289 289 290 290 290 290 289 291 297 302 304 303 302 300 297 296 295 295 296 298 299 299 299 300 300 300 300 300 300 300 300 300 300 300
297 298 298 298 298 299 299 298 298 298 298 298 299 300 300 300 300 300 299 298 297 297 297 296 296 295 295 296 295 295 296 297 297 297 296 296 298 297 291 290 291 291 292 292 291 291 290 290 290 290 289 289 288 289 289 289 290 289 289 292 296 299 300 300 298 295 293 293 294 294 295 295 296 298 299 299 300 300 300 300 300 300 300 300 300
295 296 296 296 297 298 298 298 298 298 297 297 297 298 298 299 299 299 299 298 297 297 297 297 296 295 295 295 295 295 295 296 297 297 297 296 297 297 292 291 292 292 292 292 291 291 291 290 290 290 289 289 288 288 289 289 289 289 290 290 292 294 295 294 293 291 290 291 291 291 292 292 292 294 298 299 299 299 299 300 299 299 299 299 299
293 294 294 294 295 296 297 298 298 298 297 297 296 296 297 297 298 298 298 298 298 297 296 297 296 296 295 295 295 295 295 295 296 297 298 297 297 297 292 291 292 292 291 291 291 291 291 291 290 290 290 289 288 288 288 289 289 289 289 289 290 290 290 290 289 288 288 288 289 289 289 290 289 289 293 296 298 298 299 299 299 299 299 299 298
292 292 292 293 294 295 296 296 296 296 295 295 295 296 296 296 296 297 297 297 297 297 296 296 296 296 296 295 295 295 295 295 295 296 297 297 297 296 294 292 292 291 291 291 290 291 291 291 291 290 290 289 288 288 288 288 289 289 289 289 289 289 288 288 288 288 288 287 288 288 288 288 288 287 289 293 295 296 297 298 299 299 299 298 298
290 291 292 292 293 293 294 294 294 294 294 294 294 294 295 295 295 296 296 296 296 297 296 296 296 296 296 295 295 295 294 294 294 295 296 296 297 297 296 296 295 293 292 291 289 290 291 291 291 290 290 289 289 288 288 288 289 289 289 289 288 288 287 287 287 287 287 287 287 288 288 288 287 287 287 290 293 294 294 296 297 297 297 297 297
287 287 288 289 290 292 292 293 293 293 293 293 294 294 294 294 294 294 295 295 295 295 296 296 296 295 295 295 295 295 294 294 294 294 294 295 296 297 296 296 297 297 295 293 290 289 290 291 290 290 290 290 289 289 289 289 289 289 289 289 289 288 287 287 287 287 287 287 287 288 288 287 287 287 287 289 293 293 293 294 295 295 295 295 295
285 285 286 286 287 288 289 290 291 292 292 293 293 293 293 293 293 293 293 294 294 294 295 295 295 295 295 295 294 295 295 294 294 294 294 294 294 295 296 296 296 297 297 296 292 290 290 291 290 291 291 290 290 289 289 289 289 289 289 289 289 288 287 286 286 286 287 287 287 287 288 287 287 287 286 287 290 291 291 292 293 293 292 292 292
285 285 285 285 285 285 286 286 287 289 290 291 292 292 292 293 292 293 293 293 293 293 294 294 294 294 294 294 294 294 294 294 294 293 293 294 294 294 295 296 296 296 296 296 294 291 291 291 291 292 292 291 290 290 289 289 289 289 289 289 289 289 288 287 286 286 286 286 287 287 287 287 287 287 286 286 288 289 289 290 290 290 290 290 289
285 285 285 285 285 285 285 285 285 286 286 287 289 291 291 292 292 292 292 292 292 292 293 293 293 294 294 294 294 294 294 294 294 293 293 293 294 294 294 294 295 296 295 295 295 294 293 292 292 293 293 292 291 290 290 290 289 290 290 289 289 289 288 287 286 286 286 286 286 287 287 287 287 286 286 286 287 287 288 288 289 289 288 288 287
285 285 285 285 285 285 285 285 285 285 285 285 286 287 288 290 291 291 291 291 292 292 292 292 292 293 293 293 293 293 293 293 293 293 293 293 293 293 294 294 294 295 295 293 294 294 294 294 295 294 294 293 291 290 290 290 290 290 290 290 289 289 288 287 285 285 285 286 286 287 287 287 286 286 286 286 286 287 287 287 288 288 287 287 287
284 284 284 284 284 285 285 285 285 285 285 285 285 285 286 287 288 289 290 291 291 291 291 291 292 292 292 292 292 292 293 293 292 293 293 293 293 292 293 293 293 294 294 293 293 293 293 294 294 294 293 292 291 290 290 290 290 290 290 290 289 289 288 287 285 285 285 286 286 286 287 287 286 286 286 286 286 286 287 286 286 287 286 286 286
284 284 284 284 284 284 284 284 285 285 285 285 285 285 285 285 286 286 288 289 290 290 291 291 291 291 291 291 292 292 292 292 292 292 292 292 292 292 292 292 292 293 294 293 293 292 292 292 292 292 292 291 290 290 290 290 290 290 289 289 289 289 288 287 286 285 285 285 286 286 286 287 286 286 286 286 286 286 286 286 286 285 286 286 286
284 284 284 284 284 284 284 284 284 284 284 284 285 285 285 285 285 285 286 286 288 289 290 290 290 290 290 290 291 291 291 291 291 291 291 291 291 291 291 291 291 291 292 293 293 292 291 291 291 291 291 290 290 290 291 290 290 289 289 289 289 288 288 287 286 285 285 285 285 285 286 286 286 286 286 286 286 286 286 286 286 285 285 285 285
284 284 284 284 284 284 284 284 284 284 284 284 284 284 284 285 285 285 285 285 286 286 287 288 289 290 290 290 290 290 290 290 291 291 291 291 291 291 291 291 291 290 291 292 292 292 291 290 290 291 291 290 290 290 290 290 289 288 288 288 288 288 287 287 286 285 285 285 285 285 286 286 286 286 286 286 286 286 286 286 285 285 285 285 285
283 283 284 284 284 284 283 283 283 283 283 283 283 284 284 284 284 284 285 285 285 285 286 286 287 288 289 289 290 290 290 290 290 290 290 290 290 290 290 290 290 290 290 290 291 292 291 290 290 290 290 290 290 289 289 289 288 287 287 287 287 287 286 286 286 285 285 284 284 284 285 285 286 286 285 285 285 285 286 286 285 285 285 285 285
282 282 282 282 282 282 283 283 283 283 283 283 283 283 283 284 284 284 284 284 285 285 285 285 285 286 287 288 288 289 289 289 289 289 289 289 290 290 290 290 289 289 290 290 290 291 291 290 290 290 289 289 289 288 288 288 288 287 286 285 285 285 285 285 285 285 285 285 284 284 284 285 285 286 285 285 285 285 285 285 285 285 285 285 285
282 282 281 281 281 281 281 281 282 282 282 282 282 283 283 283 284 284 284 284 284 285 285 285 285 285 286 286 287 287 288 289 289 289 289 289 289 289 289 289 289 289 289 289 289 290 290 290 289 289 289 288 288 288 288 288 287 286 285 284 283 284 284 285 285 285 285 285 284 284 284 284 285 285 285 285 284 284 285 285 285 285 284 284 284
282 281 281 281 281 280 280 280 280 280 280 281 281 282 282 283 283 283 284 284 284 284 285 285 285 285 285 285 286 286 287 287 288 288 289 289 289 289 289 289 289 289 289 289 289 289 289 289 288 288 288 288 287 287 287 286 285 285 284 283 283 283 284 284 285 285 285 284 284 284 283 284 284 284 284 284 284 284 285 285 284 284 284 284 284
281 281 281 280 280 280 279 279 279 279 279 279 280 280 281 282 282 283 283 283 284 284 285 285 285 285 285 285 285 285 285 286 286 287 288 288 289 289 289 289 289 289 288 288 289 289 289 289 288 288 287 287 286 286 285 285 285 285 284 284 284 284 284 283 283 284 284 284 283 283 283 283 283 284 284 284 284 284 285 284 284 284 283 283 283
280 280 280 280 279 279 279 278 278 278 278 278 279 279 280 281 282 283 283 283 284 284 285 285 285 285 285 285 285 285 285 285 285 286 287 288 288 289 289 289 289 289 288 288 288 289 289 289 288 288 286 286 286 286 285 285 286 285 284 284 284 284 283 282 282 282 282 283 283 282 283 283 283 283 284 284 284 284 284 284 284 283 283 283 283
279 279 279 279 278 278 278 278 277 277 277 277 277 278 279 281 282 282 283 283 283 284 284 284 284 285 285 285 285 285 285 285 285 285 286 287 287 288 288 289 288 288 288 288 288 288 288 289 289 288 287 286 287 287 286 286 286 285 285 284 284 284 283 282 283 282 282 282 282 282 283 283 283 283 283 284 284 284 284 284 284 283 283 283 282
279 279 278 278 277 277 277 277 277 276 276 277 277 277 278 280 280 281 281 282 283 283 283 284 284 284 284 284 284 285 285 285 285 285 285 286 287 287 288 288 289 288 288 288 288 288 288 288 289 289 288 287 287 287 286 286 285 285 285 284 284 284 283 283 283 284 283 283 282 282 283 283 283 282 283 284 284 284 284 284 284 283 283 283 282
278 277 277 276 276 276 276 276 276 276 276 276 276 277 278 278 279 280 280 281 281 282 283 283 283 283 283 283 284 284 284 284 285 285 285 286 286 287 287 288 288 288 289 288 288 289 289 288 288 289 288 288 287 287 287 286 286 285 285 284 284 284 284 284 284 285 285 284 283 282 282 282 282 282 282 283 284 284 284 284 283 282 282 282 282
275 275 275 275 275 275 275 275 275 275 275 275 275 276 277 278 278 279 279 280 280 281 282 282 282 283 283 283 283 283 284 284 284 285 285 285 286 286 287 287 287 288 288 288 289 289 289 289 288 288 289 288 288 288 287 287 286 285 285 285 284 284 284 285 285 285 285 285 285 283 282 282 282 281 282 283 283 284 284 284 283 282 282 282 281
273 273 273 273 273 273 273 273 273 273 273 274 274 275 276 276 277 278 278 278 279 279 280 280 281 281 282 282 283 283 283 283 284 284 285 285 286 286 286 287 287 287 288 288 288 288 289 289 289 289 289 289 289 288 287 287 287 287 287 287 286 286 285 285 285 284 284 284 284 283 283 282 282 281 282 282 283 283 283 283 282 281 281 281 281
271 271 271 271 271 271 272 272 272 272 272 272 273 274 274 275 275 276 276 276 277 277 278 278 279 280 280 281 282 283 283 283 284 284 284 285 285 286 286 286 286 287 287 287 288 288 288 289 289 289 289 288 288 288 288 287 287 287 287 286 286 285 285 284 284 283 283 283 283 283 283 283 282 282 282 282 282 281 281 282 281 281 281 280 280
269 269 269 269 269 269 269 270 270 270 270 270 271 272 272 273 273 274 274 274 275 275 276 276 277 278 279 280 280 281 282 282 283 283 284 285 285 285 286 286 286 286 287 287 287 288 288 288 288 289 289 289 288 288 288 287 287 287 286 285 285 285 284 284 284 283 282 283 283 283 283 282 282 282 281 281 281 281 280 281 281 280 280 280 280
267 267 267 267 267 267 267 268 268 268 268 268 269 269 270 270 271 271 272 273 273 274 274 275 275 276 276 277 278 279 280 281 282 283 283 284 285 285 286 286 286 286 286 286 287 287 287 287 288 288 288 288 288 288 288 288 287 286 286 285 285 285 284 284 285 284 282 282 283 283 283 282 282 281 281 280 280 280 280 280 280 280 281 281 281
266 266 266 266 266 266 266 266 266 266 266 266 266 267 268 269 270 270 271 272 272 273 273 274 274 275 275 275 276 277 278 279 280 282 283 284 284 285 285 285 286 286 286 286 286 286 287 287 287 287 288 288 288 288 289 288 287 286 286 286 286 285 284 285 285 284 283 283 282 283 283 282 281 281 281 280 279 279 279 280 279 279 281 281 281
Wind_Speed
27 26 26 26 26 24 24 23 22 22 22 24 25 26 26 25 22 19 17 17 16 15 14 12 11 9 9 8 7 6 5 5 6 5 3 2 3 2 3 3 4 6 7 7 5 4 4 4 4 4 4 4 4 3 3 3 5 4 2 3 2 3 3 3 3 3 3 4 4 4 4 4 5 5 6 6 6 6 5 5 5 5 5 6 6
29 28 28 28 27 26 25 24 23 23 23 25 27 27 27 26 24 21 20 19 18 17 15 14 13 12 11 10 9 8 7 6 6 6 5 4 4 3 3 4 4 6 7 8 8 6 5 5 5 5 5 5 5 4 3 4 6 4 2 3 2 2 2 2 3 4 4 3 3 3 4 4 5 5 5 5 5 5 5 5 4 4 4 4 5
30 29 29 30 29 27 26 24 24 24 25 26 27 27 27 26 24 22 22 21 20 18 16 16 15 14 13 11 10 9 8 8 7 7 6 5 4 4 3 4 5 6 8 9 10 9 7 7 6 6 6 6 7 6 4 4 5 4 3 3 2 2 2 2 3 4 3 3 3 4 4 4 5 5 5 5 5 5 5 5 4 4 4 4 4
31 31 31 31 30 28 26 25 25 25 25 26 27 27 26 24 23 22 21 21 20 19 18 17 17 15 14 12 12 10 10 9 8 8 7 6 5 5 4 4 6 7 9 11 11 11 9 7 7 9 10 8 8 8 6 6 6 5 4 3 3 3 3 3 4 4 3 3 3 4 4 5 5 4 5 5 5 5 5 5 4 4 5 4 4
32 31 31 31 30 29 27 26 25 24 25 26 26 25 24 23 22 20 20 21 21 20 19 18 17 16 14 13 13 12 11 10 10 9 8 8 6 5 5 6 7 8 10 11 11 12 12 11 11 13 13 10 8 9 8 7 8 7 6 4 4 3 3 3 4 4 4 4 4 5 5 5 5 5 5 5 5 5 5 4 4 4 5 5 5
32 31 30 30 30 28 27 26 25 24 25 26 26 25 25 24 23 22 21 22 22 22 21 20 19 17 16 15 14 13 13 12 11 10 10 9 8 7 7 7 8 9 10 11 12 12 14 14 14 15 14 10 9 9 8 8 8 8 8 6 5 5 3 3 4 5 4 5 5 5 5 5 5 5 5 4 4 5 5 5 4 5 4 4 5
32 31 30 29 29 28 27 26 25 25 25 26 26 26 26 26 25 24 23 23 23 22 22 21 20 19 17 17 16 15 15 15 13 11 11 11 9 9 8 8 9 10 11 12 12 12 14 14 12 14 15 11 11 8 7 8 8 8 9 8 7 6 5 5 5 5 5 5 5 5 6 5 5 5 4 4 4 4 4 5 5 5 5 5 5
31 30 30 29 29 28 26 26 25 26 26 26 27 27 27 26 26 25 25 25 24 23 22 21 20 18 17 17 16 16 16 15 14 12 11 11 11 10 10 9 10 11 12 13 13 13 14 14 11 13 15 14 14 11 8 8 8 9 9 9 8 8 6 6 6 6 6 6 6 6 5 5 5 5 5 4 4 4 4 4 4 4 4 4 4
29 29 28 28 28 27 26 26 26 27 27 27 27 27 27 26 25 25 26 26 26 25 23 21 19 18 17 17 16 16 16 14 13 13 13 12 12 12 11 11 11 11 12 14 15 14 15 14 12 13 15 15 15 14 12 11 9 9 10 10 9 8 8 7 7 7 7 6 5 6 5 5 5 5 4 3 3 3 3 4 4 4 4 4 4
27 27 26 26 26 26 26 26 27 28 28 28 28 27 27 26 26 25 26 26 26 26 24 22 20 18 17 17 16 15 14 14 14 14 13 13 13 13 13 13 13 13 13 14 15 15 16 15 13 13 16 16 15 15 15 15 13 10 10 11 10 9 9 9 8 7 7 6 5 6 5 5 5 4 4 3 3 3 3 4 4 4 4 4 4
24 25 25 25 25 25 26 27 28 29 29 29 29 28 27 27 27 26 27 26 26 25 24 22 19 18 17 15 14 14 14 13 14 14 14 14 15 15 15 15 15 15 14 14 14 15 15 15 14 15 17 17 16 16 16 16 15 13 12 12 11 11 10 9 9 7 7 7 6 6 6 5 5 4 4 4 4 4 4 4 4 4 4 4 4
21 23 24 24 24 25 27 28 29 30 31 31 31 31 30 29 29 28 28 26 24 24 24 24 21 17 15 14 13 12 13 13 13 14 15 16 16 16 16 17 18 17 17 15 14 15 15 15 15 16 17 17 17 17 17 17 17 16 14 13 12 12 12 10 9 9 8 7 7 7 6 5 5 5 5 4 4 4 4 5 4 4 4 4 4
16 20 22 24 25 26 27 28 29 30 31 32 32 31 31 30 29 28 28 28 26 25 26 26 22 16 11 12 13 13 12 12 13 15 16 17 17 17 18 18 19 18 18 18 16 16 15 15 15 16 16 16 17 18 17 17 18 18 16 15 15 14 13 11 10 10 9 8 7 7 6 6 6 6 5 4 4 4 4 5 4 4 4 4 3
11 16 20 22 23 25 26 27 28 29 30 31 31 31 30 30 29 28 28 29 29 28 30 28 22 18 14 8 7 10 12 13 15 17 17 18 18 18 19 19 19 19 19 19 18 18 17 16 15 16 17 17 18 19 19 19 19 20 19 17 17 16 14 12 11 11 10 9 9 8 7 7 6 6 6 5 5 5 5 5 4 4 3 3 3
9 12 16 19 20 22 24 25 27 28 29 30 30 30 30 30 30 30 28 28 28 29 34 32 24 20 13 6 4 5 6 13 19 21 20 20 20 20 20 21 20 19 20 20 20 19 18 18 17 17 17 18 19 20 21 21 20 21 21 20 19 18 16 14 13 13 12 11 10 9 8 7 7 6 6 5 5 5 5 5 4 4 3 3 3
9 10 12 15 18 20 21 23 24 25 27 28 30 30 30 30 31 31 30 27 26 28 35 37 30 22 11 2 3 3 3 9 16 20 21 21 22 22 22 22 21 21 21 22 21 21 20 19 18 18 18 18 18 20 21 22 22 22 22 21 21 20 17 16 15 14 12 12 11 10 9 8 7 7 6 6 6 5 6 5 5 4 4 4 4
8 9 10 12 14 17 19 20 21 23 24 26 28 29 29 31 31 32 32 30 28 28 33 37 37 33 21 7 4 3 4 5 8 12 19 23 22 22 23 23 23 22 23 23 22 22 22 21 20 19 19 19 18 18 20 22 23 23 22 22 23 22 19 16 16 15 13 12 11 10 9 9 8 8 7 7 6 6 6 6 5 5 4 4 4
9 9 10 11 12 14 17 19 20 20 21 23 26 27 28 29 31 32 33 33 31 27 29 36 38 37 32 21 13 7 4 7 5 3 11 20 22 22 24 24 24 24 24 24 24 24 24 23 23 22 20 20 19 19 19 22 24 24 23 23 24 24 22 18 15 14 13 13 12 11 10 9 8 8 8 8 8 7 7 7 6 6 5 5 5
11 10 9 10 11 12 13 16 19 20 19 20 23 25 27 28 29 31 33 34 33 28 27 34 34 33 35 34 25 13 7 9 7 3 3 10 20 24 25 25 25 26 27 26 25 25 26 25 24 24 23 22 21 21 21 22 25 26 25 25 26 26 24 20 17 15 13 13 13 11 10 9 8 9 9 9 8 8 8 7 7 6 6 6 5
12 12 12 10 10 11 12 13 16 18 19 19 20 22 25 27 28 30 32 33 34 31 30 31 30 31 35 37 31 21 14 13 14 11 6 3 11 17 23 27 28 28 29 29 29 28 28 28 27 26 25 25 24 23 23 23 25 27 28 28 28 28 26 23 20 19 17 15 13 12 11 10 9 9 9 9 8 8 8 8 7 7 7 6 6
12 13 14 13 12 11 11 13 14 16 18 20 20 20 22 25 27 28 30 32 34 33 32 31 32 31 31 33 33 26 20 16 17 16 9 5 5 7 14 20 22 30 33 31 31 32 31 29 28 27 26 27 27 25 25 25 26 28 29 31 31 30 29 26 24 23 22 20 18 15 13 11 10 10 10 9 9 9 8 8 8 7 7 6 6
13 13 14 15 14 12 12 12 12 14 16 18 20 20 21 23 25 27 28 30 32 34 34 33 34 34 31 30 29 25 19 14 14 16 11 6 5 5 11 16 15 25 35 36 35 34 33 32 29 29 28 28 29 28 27 26 26 27 29 32 33 32 31 30 27 26 25 24 22 19 17 15 13 11 10 10 10 9 9 8 8 8 7 7 6
14 13 13 14 14 13 13 12 12 13 15 16 18 20 21 22 23 25 27 28 29 32 34 35 34 34 34 32 30 28 23 18 17 20 15 8 5 4 10 19 17 19 27 35 37 35 34 34 32 31 31 30 31 30 29 28 27 26 28 31 33 33 33 32 30 29 27 26 24 23 22 19 16 14 12 11 11 10 9 9 9 8 8 7 7
16 15 15 15 14 12 12 13 13 13 15 17 18 19 20 22 23 24 26 27 27 28 32 35 34 34 35 35 34 33 32 28 24 25 24 19 13 6 8 15 14 16 20 25 32 36 35 35 35 34 33 31 32 32 31 30 29 27 28 30 32 32 32 32 31 30 29 28 27 25 24 22 18 17 15 13 12 12 11 10 10 9 9 8 8
20 19 18 17 16 13 12 12 13 14 16 17 19 19 20 21 22 24 25 26 27 27 29 31 33 36 36 36 36 35 36 35 30 28 27 25 17 8 9 11 8 11 15 17 24 31 34 36 36 35 34 33 32 33 33 32 31 29 29 30 31 31 31 31 31 30 29 28 27 26 25 23 21 18 17 16 15 14 13 12 11 10 9 8 8
22 21 20 17 15 13 12 12 13 14 15 17 18 19 19 21 22 24 25 26 26 27 28 28 30 34 36 36 36 36 36 37 36 33 29 26 21 13 9 8 5 6 10 14 18 21 27 35 38 36 34 34 34 34 35 35 34 32 31 31 31 31 32 31 30 30 29 27 26 25 24 23 21 19 17 17 17 16 14 13 12 11 10 9 8
23 22 21 19 17 15 13 13 14 15 15 15 16 16 17 19 21 23 24 25 26 27 28 28 29 30 33 35 36 37 35 34 35 37 35 31 29 24 16 8 5 4 5 10 15 19 24 30 35 38 37 35 36 36 36 37 36 34 33 32 32 32 32 31 31 30 29 27 26 24 23 22 20 18 17 17 16 16 15 13 13 13 11 10 9
23 24 23 22 21 19 17 16 15 15 15 15 15 16 17 18 19 21 22 23 25 27 28 29 29 29 30 32 35 38 37 34 34 36 37 37 34 32 27 17 10 5 4 5 8 15 25 26 28 36 40 38 38 38 38 39 38 37 35 34 34 33 33 31 30 30 29 28 26 24 23 22 20 19 19 19 16 15 17 14 12 12 11 10 10
23 23 24 23 23 23 22 20 18 18 17 16 16 16 17 18 19 20 21 22 24 26 27 28 30 30 30 30 32 36 37 36 35 34 34 37 36 35 33 29 20 10 5 6 6 10 22 29 29 32 38 41 40 39 40 40 40 39 38 37 35 35 34 32 31 30 30 28 27 26 24 22 21 20 21 22 20 18 19 18 15 15 14 13 13
22 22 22 23 23 23 23 23 22 21 20 18 17 16 16 18 19 21 21 22 24 25 25 27 29 29 31 31 32 33 34 35 36 35 33 34 35 35 35 35 31 22 11 7 9 14 21 29 33 33 36 41 42 41 42 42 42 41 40 39 38 36 35 33 32 31 30 29 28 27 25 23 23 23 23 24 24 22 21 21 19 18 17 16 14
22 22 23 23 23 23 23 23 23 23 22 21 19 18 17 18 19 20 21 22 24 26 25 26 27 28 30 32 32 33 33 33 35 36 35 34 34 34 35 35 35 34 25 12 8 15 22 27 34 37 36 39 42 43 43 43 44 43 42 41 39 37 36 34 33 31 31 31 30 29 28 26 25 25 24 25 25 24 22 21 19 17 17 16 14
22 22 23 24 24 24 23 23 23 23 23 22 21 20 19 18 18 20 21 21 24 26 26 27 27 28 29 31 32 33 33 34 35 36 36 36 35 35 35 35 34 35 34 22 10 13 21 27 31 36 37 38 40 43 44 44 44 44 43 43 41 38 37 37 35 33 32 32 32 31 30 29 27 26 26 25 25 24 23 22 20 17 17 17 14
23 23 23 23 24 24 24 24 24 24 23 23 23 22 22 21 20 19 20 20 22 24 26 27 27 28 29 31 32 32 32 34 35 35 35 36 36 36 36 36 35 34 33 28 18 13 17 24 28 30 35 38 39 42 44 44 45 45 44 43 42 40 39 40 37 35 34 34 33 33 32 31 30 28 27 27 26 25 23 22 22 20 19 18 15
26 26 26 25 25 25 25 25 26 26 25 24 24 24 24 24 23 22 21 20 21 23 24 26 27 28 29 31 32 32 31 33 35 34 35 35 35 36 37 36 36 35 33 31 25 16 14 21 26 27 31 36 38 41 44 45 46 46 46 45 44 42 42 42 40 37 36 35 34 34 34 33 32 30 29 28 27 26 24 23 23 22 21 18 16
28 28 28 28 29 28 28 28 28 28 27 26 26 25 25 25 25 25 24 23 23 23 23 25 26 26 28 30 31 31 31 33 34 34 34 34 34 36 37 37 36 36 35 33 29 23 17 19 25 28 30 35 39 41 44 46 46 45 46 46 45 44 43 43 42 40 37 36 35 35 35 35 33 32 30 29 28 27 25 25 24 23 22 19 17
30 30 30 30 31 31 31 31 31 31 30 29 28 27 26 26 26 26 26 26 26 26 26 25 25 25 27 29 30 30 30 31 33 33 32 33 34 34 36 37 37 36 35 33 33 30 23 19 23 29 32 35 39 41 42 43 42 43 44 44 45 45 44 44 43 41 38 36 35 35 36 36 34 32 31 29 29 28 27 26 26 25 23 21 20
30 31 31 31 32 32 32 32 33 33 33 32 31 30 29 28 27 28 28 28 28 28 28 28 27 26 27 28 29 29 28 30 31 31 31 32 33 33 35 36 36 36 34 33 35 34 29 23 23 27 31 33 34 36 40 41 40 39 40 41 43 44 43 43 43 42 40 36 35 35 35 35 34 33 32 30 29 29 29 28 27 27 25 24 22
32 32 32 33 33 33 33 34 34 34 34 34 33 33 33 31 30 29 29 30 30 30 30 30 29 29 28 29 29 29 29 30 30 30 30 31 32 33 35 35 34 34 33 33 33 33 32 29 25 25 29 32 31 31 37 42 41 39 39 38 39 41 41 42 42 43 42 39 37 36 35 35 35 34 33 32 31 30 30 29 29 28 27 26 24
34 35 35 35 35 34 35 35 35 35 35 36 36 36 35 34 32 31 31 31 31 31 32 32 32 32 31 31 30 30 31 31 32 31 30 31 32 32 34 34 32 32 33 33 32 31 31 30 26 25 29 33 33 31 35 40 40 39 38 34 32 35 39 42 44 44 44 42 39 37 36 36 36 35 34 33 32 32 31 30 29 29 28 27 26
36 37 37 38 38 37 37 36 36 36 36 37 38 37 36 36 34 34 34 34 33 33 34 34 34 34 34 34 33 33 33 33 33 33 32 32 31 32 33 31 30 30 32 32 31 30 30 29 26 26 26 29 31 29 29 33 33 32 35 34 32 37 42 44 45 45 44 43 41 38 37 36 35 35 35 34 34 33 31 31 30 30 29 28 26
37 38 39 40 40 40 40 39 39 38 38 38 39 37 36 36 36 37 37 37 37 36 36 36 36 35 35 35 36 36 35 35 35 34 34 33 33 33 33 30 29 30 31 31 30 29 29 27 25 24 22 24 29 29 27 33 37 35 35 36 35 38 39 38 40 42 42 42 41 39 38 38 37 37 37 37 37 35 33 32 32 31 30 29 27
38 39 39 40 40 41 42 43 43 42 41 41 41 41 37 35 36 37 37 38 38 37 37 38 38 38 37 37 38 38 38 38 38 37 36 36 35 36 36 33 31 31 31 30 30 30 28 25 24 23 19 20 29 33 33 38 41 36 34 38 35 31 28 26 29 35 39 39 38 39 41 41 40 39 40 40 40 37 36 35 35 34 32 30 29
38 38 38 40 41 42 42 43 44 44 44 45 46 44 39 35 35 37 38 38 39 38 37 38 38 39 39 38 38 38 38 39 39 39 38 38 37 38 38 38 37 36 34 32 31 31 29 26 27 25 22 23 31 35 35 35 36 35 37 39 34 28 26 22 19 23 36 42 39 37 42 44 43 42 43 43 42 40 40 39 37 36 34 32 30
37 38 39 41 42 43 42 42 44 45 46 48 48 44 39 37 36 37 38 39 39 39 39 39 39 39 38 39 39 39 39 39 39 40 39 39 39 38 38 39 39 41 41 39 36 34 31 29 28 28 28 29 31 34 36 35 34 35 35 34 35 34 32 28 23 23 34 45 43 38 40 44 44 43 44 44 44 43 42 41 40 38 36 34 32
37 39 41 41 42 42 41 41 43 44 46 50 49 43 38 37 37 37 38 39 39 40 40 40 41 41 40 39 38 38 39 39 39 39 39 39 39 38 38 38 39 42 44 45 45 42 39 35 32 33 35 33 29 32 38 38 35 34 33 33 36 36 32 32 35 31 31 41 47 40 36 40 44 43 43 45 45 44 43 43 41 39 36 34 32
38 39 40 41 41 42 41 41 41 43 46 49 47 41 38 37 37 37 38 39 41 42 42 42 42 42 43 42 40 40 40 39 38 38 38 39 38 37 37 38 40 42 43 46 48 48 46 42 38 39 41 37 32 32 36 39 40 39 39 38 37 37 36 38 40 34 31 41 50 39 28 34 41 41 42 45 45 45 46 44 43 40 37 35 33
37 38 39 40 41 42 41 40 40 42 46 46 43 40 39 39 38 38 38 39 40 42 44 45 44 43 43 43 43 43 43 42 40 39 38 38 37 37 37 38 40 42 43 45 47 48 48 47 46 46 45 40 36 34 33 39 45 46 45 44 41 41 41 38 34 30 29 37 45 35 21 27 39 40 41 44 44 43 45 43 42 40 37 34 34
36 36 37 38 39 40 41 39 39 41 45 44 40 38 39 39 38 38 38 38 39 41 43 44 45 45 44 43 43 43 44 45 44 43 41 39 38 37 38 39 40 41 43 45 47 47 47 46 48 50 48 43 39 36 35 38 44 46 43 38 37 36 33 27 25 27 27 31 42 40 24 21 34 39 37 38 39 39 41 42 41 39 37 36 35
36 35 35 36 37 38 39 39 38 40 44 43 38 37 39 38 39 39 39 39 40 41 42 43 43 44 44 43 42 42 43 45 46 46 44 41 39 39 39 39 40 39 42 44 45 45 45 45 46 49 50 47 42 40 37 36 40 44 40 33 33 35 28 18 15 21 26 29 40 44 29 19 31 37 31 30 35 37 37 41 41 38 36 36 35
35 35 35 36 39 38 38 39 38 38 43 43 39 37 39 39 38 39 39 39 39 40 42 44 43 43 45 44 43 43 45 46 46 46 44 41 41 41 40 39 38 38 40 43 41 39 40 42 45 47 48 48 45 42 40 37 38 43 44 40 39 36 28 21 18 19 23 29 40 44 30 20 28 33 26 21 24 29 33 37 39 37 34 34 34
34 36 34 35 40 40 38 38 38 38 42 45 40 37 38 37 36 36 36 36 36 37 38 39 40 41 44 45 45 44 45 46 45 45 44 43 43 43 42 39 36 37 41 42 38 35 36 38 41 44 46 46 45 44 44 41 38 42 49 49 44 38 33 31 26 17 12 21 38 45 32 21 27 33 28 19 11 16 27 32 34 36 35 33 33
Wind_Direction
223 225 228 229 230 229 227 228 229 228 225 220 217 217 216 218 217 206 200 203 203 208 210 211 209 203 207 210 210 214 216 229 244 245 235 231 236 228 219 205 193 195 179 160 169 186 181 186 186 183 186 185 185 175 166 161 157 157 132 124 127 117 117 120 124 127 124 110 108 112 106 103 101 105 106 101 98 98 102 106 112 115 123 131 123
223 225 228 229 228 227 226 226 228 228 226 222 218 219 219 219 218 211 206 207 207 209 211 213 213 209 208 211 214 218 222 230 245 255 254 250 252 244 233 222 200 195 191 170 162 176 188 190 188 191 194 193 194 190 192 176 160 159 161 151 142 131 130 135 138 139 136 120 108 112 116 117 109 110 109 100 98 99 93 92 99 99 107 119 116
225 225 227 227 226 225 225 226 228 228 227 223 219 220 221 221 219 214 210 210 210 212 213 215 215 213 211 210 214 220 226 231 241 252 259 260 257 250 235 223 209 196 193 185 171 167 176 182 182 190 197 201 203 202 204 191 176 169 166 165 165 155 150 152 154 154 148 132 127 126 123 126 116 106 106 103 101 100 99 95 95 94 94 102 105
227 226 226 225 224 225 226 227 229 229 227 223 220 220 222 223 221 217 213 211 212 214 214 216 217 215 212 211 215 221 226 231 240 249 256 258 256 252 239 220 214 203 196 199 190 176 167 168 183 194 192 196 208 207 204 201 199 195 187 180 178 179 173 168 167 166 159 139 133 135 131 128 120 109 104 103 103 103 103 99 96 97 93 92 96
229 227 225 224 224 225 227 229 231 230 227 222 219 220 221 219 219 217 215 212 212 214 213 214 217 216 213 212 216 221 227 230 236 245 252 254 253 247 239 224 215 208 202 203 203 192 179 179 195 196 189 190 201 204 203 205 204 201 202 200 192 192 183 173 174 171 166 154 147 141 139 133 122 117 112 106 103 105 103 99 95 99 99 95 95
229 226 224 225 225 225 228 231 231 229 225 221 218 219 218 215 215 214 214 213 213 213 213 212 214 215 213 213 216 220 227 230 232 239 246 251 249 240 234 228 219 211 206 205 206 204 198 201 206 196 189 188 186 192 197 198 204 205 206 205 199 197 186 174 173 173 167 156 154 152 149 143 133 128 123 115 108 106 106 104 99 100 106 102 98
228 226 225 225 226 226 230 232 230 226 223 221 219 218 217 216 215 213 212 213 213 213 214 215 213 213 212 212 215 220 225 228 229 233 241 246 246 241 235 228 222 214 210 208 208 210 210 214 214 198 192 185 175 179 190 191 198 201 204 205 199 198 196 185 174 171 169 161 160 161 156 151 148 143 137 129 118 115 114 114 110 108 112 110 103
227 227 227 227 228 229 232 232 228 224 222 220 220 219 218 218 217 217 213 209 208 209 212 214 214 212 211 212 215 219 224 227 228 230 235 240 241 241 239 230 223 218 214 213 211 212 212 215 218 205 195 186 176 175 184 195 200 199 199 202 200 199 197 192 188 186 178 170 167 165 162 161 160 154 149 144 135 132 133 128 126 128 125 122 121
227 227 228 228 230 232 232 229 226 224 223 221 222 222 222 219 217 218 217 212 206 205 206 209 211 210 209 212 214 219 223 224 227 232 232 233 234 236 239 236 231 224 219 218 217 216 217 219 220 209 198 193 187 181 183 190 196 202 201 199 199 199 196 190 186 180 174 171 172 176 175 173 174 171 167 166 160 156 152 141 134 135 133 131 129
227 227 228 230 232 233 232 228 226 226 224 224 224 224 223 222 218 215 217 216 210 205 205 206 206 205 206 209 213 217 222 224 225 229 230 230 230 230 231 235 239 235 226 223 223 223 224 224 220 209 203 202 202 198 195 192 189 196 202 199 197 197 195 192 181 169 171 179 185 195 197 193 195 196 192 187 180 174 161 150 143 138 135 133 131
231 230 230 231 232 233 233 229 228 227 225 224 224 222 222 222 221 216 214 216 218 213 207 204 200 199 200 201 207 214 218 222 223 225 226 227 227 225 226 230 236 239 236 229 228 230 230 228 222 216 215 217 219 215 208 202 193 191 198 201 200 196 195 197 194 190 193 197 199 207 212 212 212 210 205 199 190 186 176 166 160 155 151 147 145
236 235 234 234 235 235 234 232 229 227 226 225 224 224 224 222 221 218 214 213 217 215 209 202 190 183 189 192 197 208 215 218 219 222 225 224 223 224 228 229 231 236 240 237 233 233 233 232 229 225 225 224 223 219 213 210 202 193 195 202 202 197 196 199 197 199 201 201 206 212 214 212 213 214 213 209 203 196 187 182 174 167 166 162 158
244 243 241 240 240 238 235 233 230 229 229 230 230 229 228 227 224 220 217 214 211 210 207 199 182 169 175 189 196 200 207 213 220 226 224 221 223 227 230 229 229 232 236 238 236 236 235 234 232 231 230 225 220 218 218 216 209 200 197 200 202 197 197 199 196 195 198 199 202 206 209 211 215 218 220 219 213 205 196 190 183 177 177 173 167
257 253 250 247 244 240 237 235 233 232 232 233 234 232 229 228 225 219 218 217 214 208 201 194 183 179 177 172 193 207 210 214 222 226 222 221 224 228 231 230 230 230 232 235 235 236 236 235 232 231 232 230 224 222 221 219 214 208 202 199 201 201 198 198 199 198 196 197 197 197 205 213 219 223 224 221 214 207 200 194 191 187 184 181 174
280 267 261 259 255 248 242 240 238 236 234 233 233 232 229 228 226 222 217 215 216 211 204 200 192 181 173 170 194 200 223 226 223 221 218 220 223 226 231 233 232 232 231 233 233 233 235 235 233 230 232 233 231 229 225 222 219 215 211 204 199 201 202 199 196 197 195 193 193 195 204 213 220 222 220 218 212 205 202 199 198 193 183 177 168
300 287 275 270 267 261 254 248 245 242 239 236 234 233 231 229 228 225 218 210 211 212 209 207 201 189 173 136 156 158 232 228 217 216 215 219 225 227 230 231 230 229 230 231 232 232 231 232 233 232 232 234 233 232 229 225 223 220 218 211 200 199 204 202 196 195 194 194 195 197 202 208 212 215 214 214 208 203 204 203 199 195 186 174 165
318 305 292 283 276 271 268 262 256 251 246 242 240 240 238 233 231 228 222 215 214 214 211 209 210 209 200 169 135 188 234 200 190 212 213 216 224 226 228 229 228 228 230 232 231 230 228 228 230 231 232 234 232 231 229 226 224 221 219 214 203 197 197 197 196 196 193 192 197 200 201 201 204 209 212 213 209 206 206 206 201 195 189 178 171
344 326 311 300 290 280 276 273 269 264 257 251 246 246 244 240 237 232 228 225 221 218 214 212 214 217 214 213 217 217 187 157 145 204 214 216 222 222 225 227 228 230 232 233 231 229 227 226 227 227 229 232 231 227 226 224 222 220 218 214 206 198 194 191 191 196 200 198 196 198 199 199 204 210 214 215 214 210 206 205 202 195 190 183 177
6 354 338 319 306 296 287 281 278 275 270 262 254 251 251 249 245 239 236 233 227 222 220 218 218 220 221 225 231 237 211 180 174 160 189 224 224 220 223 225 226 230 232 233 232 230 228 226 226 225 225 229 229 225 223 221 220 219 217 214 210 206 203 200 194 193 202 205 198 198 201 200 207 216 217 218 216 211 207 205 200 194 190 183 179
3 5 2 350 332 315 304 295 287 282 279 274 265 259 257 256 252 246 241 238 232 229 228 224 222 224 224 227 235 243 237 218 209 196 164 193 221 220 223 224 225 229 232 234 233 232 230 227 226 224 223 225 227 225 222 220 219 218 217 216 214 212 213 213 209 204 206 211 206 201 202 203 210 217 218 219 216 208 208 207 199 194 192 187 180
352 352 354 355 351 340 325 312 302 293 287 283 278 270 263 259 257 254 248 244 239 237 235 231 229 229 228 230 235 241 242 238 226 212 197 192 205 213 217 218 226 231 231 232 232 232 232 230 228 227 226 226 226 225 222 220 219 218 219 219 217 217 218 221 222 221 223 226 221 206 200 201 207 216 217 216 217 212 210 210 202 196 194 189 182
10 358 350 346 340 338 338 331 322 312 300 293 287 280 273 267 263 260 257 253 248 244 241 239 238 236 234 232 233 235 235 238 229 219 220 221 209 202 200 197 213 228 227 227 228 228 229 229 229 229 228 227 228 227 224 222 221 219 220 222 222 222 224 227 229 231 232 232 227 215 207 203 201 208 213 213 214 215 212 209 205 200 197 193 185
16 11 2 354 340 327 326 330 331 327 317 309 300 292 285 279 274 269 264 261 257 252 247 244 243 242 241 238 235 232 228 228 224 218 218 219 206 199 202 202 210 225 225 225 225 225 226 227 228 229 228 227 228 229 228 226 224 222 223 225 227 227 228 231 233 234 233 230 227 223 221 217 205 197 203 211 211 211 211 209 207 205 200 196 187
10 5 0 357 353 341 327 321 324 328 326 320 313 306 299 291 285 279 273 269 265 260 254 249 245 245 245 244 242 239 236 235 233 225 223 224 221 209 196 201 216 234 230 223 222 223 225 226 228 229 228 226 227 229 230 229 227 225 225 227 229 230 231 233 234 233 232 230 229 227 226 225 215 197 192 201 208 208 209 209 208 207 204 199 193
14 9 1 355 353 354 348 331 323 324 323 321 317 313 308 302 296 289 283 278 273 268 262 257 252 249 249 249 248 245 242 241 241 238 234 233 233 229 200 198 219 238 230 222 218 222 225 227 230 231 228 226 226 227 229 231 230 228 229 229 229 230 230 231 233 233 231 230 229 228 226 224 221 209 195 192 200 204 205 208 210 209 206 203 199
18 14 7 0 353 350 350 341 331 326 322 319 317 315 311 307 302 297 291 286 282 277 272 267 262 257 253 253 252 250 248 245 244 243 241 237 235 229 203 204 242 238 220 219 214 214 220 225 228 229 229 228 226 227 229 230 231 229 230 231 229 228 229 229 231 233 233 231 227 226 224 220 218 216 203 194 198 202 202 203 206 207 207 205 202
22 19 14 9 1 353 345 340 336 332 328 326 323 321 318 312 307 302 297 293 289 285 281 277 272 267 261 258 256 256 254 250 247 246 245 242 239 233 216 200 241 249 222 220 216 215 219 222 225 226 228 229 227 227 229 230 231 230 230 231 229 229 228 228 230 232 234 232 227 223 220 218 216 214 209 203 203 207 206 204 203 204 204 203 199
26 24 21 18 12 5 358 349 342 336 333 333 331 328 326 321 315 309 303 299 295 291 289 285 280 276 271 266 262 260 259 257 253 250 249 247 245 241 229 214 219 245 240 228 228 227 224 222 224 225 226 227 228 228 229 231 231 230 229 229 229 228 228 228 229 231 233 232 229 224 219 218 217 214 213 210 208 211 210 207 206 204 201 199 198
25 22 21 20 18 15 11 5 359 351 342 335 332 330 328 324 320 316 311 306 301 297 294 290 287 283 278 273 269 266 265 262 259 255 252 250 248 245 238 229 223 227 232 230 228 223 222 221 221 223 224 224 227 227 228 230 231 229 229 228 228 228 227 228 229 230 233 231 228 225 220 218 218 216 215 214 215 215 211 209 212 212 212 213 213
19 17 16 15 14 14 13 11 8 4 358 350 340 332 327 323 321 318 316 312 306 301 298 294 291 288 284 280 276 272 270 268 265 261 256 254 251 247 244 238 230 228 230 233 229 221 219 219 221 223 223 222 223 224 226 228 229 228 229 229 228 227 226 227 229 230 231 231 228 225 221 219 219 218 218 217 219 220 216 214 218 222 223 224 221
10 9 8 7 7 7 6 6 5 4 3 1 354 345 335 326 321 317 316 315 310 305 302 298 295 293 289 285 282 279 276 272 270 267 262 258 255 251 249 244 236 233 232 231 241 230 220 221 225 227 226 224 221 220 223 226 227 227 228 229 229 228 226 226 227 229 230 229 228 225 222 221 220 220 221 221 221 222 219 217 220 225 227 228 224
3 1 0 359 358 357 357 357 357 357 357 357 356 352 346 338 329 321 316 313 310 307 305 302 298 294 291 288 286 283 281 276 272 270 267 263 259 255 253 250 243 239 235 231 242 241 228 231 236 232 228 225 220 217 219 223 224 225 227 230 229 226 225 225 226 226 228 228 227 225 223 221 221 221 222 223 224 223 222 219 220 226 229 231 227
356 355 353 353 352 350 349 348 348 348 348 349 349 346 344 341 337 330 323 315 309 306 305 302 300 296 292 290 288 286 284 280 275 271 269 266 263 259 255 253 249 245 239 233 239 249 235 232 236 233 228 223 218 216 217 219 220 221 223 227 228 226 224 223 224 224 226 227 226 225 223 221 221 221 222 224 225 225 223 221 223 227 230 232 228
348 348 347 347 346 344 343 341 341 341 340 340 340 339 338 335 334 332 327 321 312 306 303 300 298 298 294 290 288 288 286 281 277 274 270 267 265 261 257 254 251 249 244 237 238 245 239 228 226 228 224 218 215 215 216 218 220 218 218 221 224 225 224 223 222 222 224 226 226 226 225 223 221 221 221 223 225 226 224 223 225 228 230 233 229
341 342 342 341 340 340 338 336 335 335 334 333 332 332 330 328 327 326 324 320 315 309 304 300 298 296 294 290 288 288 287 283 279 276 273 269 265 262 260 257 253 251 247 242 239 240 241 231 222 220 217 213 214 216 217 219 220 217 216 218 220 221 222 222 221 221 222 224 226 227 226 225 223 222 222 223 224 226 225 224 226 229 230 231 229
337 337 337 336 336 335 333 332 331 329 328 327 325 324 323 321 318 318 318 316 312 309 305 302 300 296 292 288 287 286 285 282 280 277 274 271 266 262 261 259 256 254 250 245 241 240 239 233 223 220 217 213 214 216 215 214 215 216 216 216 218 219 220 220 220 220 222 224 227 228 228 227 225 224 223 224 225 226 226 225 226 229 230 229 228
332 332 332 331 331 329 328 327 325 323 322 321 319 317 316 315 312 310 311 310 307 306 303 301 300 297 293 288 287 286 282 278 278 277 275 272 268 264 261 260 258 256 252 247 244 241 239 235 228 220 217 215 214 214 211 209 209 213 215 216 217 217 218 219 220 220 221 223 226 228 229 228 227 226 225 225 226 226 227 226 226 227 229 230 229
328 328 328 327 326 325 323 321 320 318 317 315 313 311 310 309 307 304 304 304 303 301 299 299 298 296 292 289 287 284 280 275 273 273 272 271 269 265 262 260 259 257 254 249 244 241 238 238 233 219 213 212 210 210 211 209 206 206 208 212 215 216 217 218 219 220 221 222 225 226 227 227 226 226 226 225 226 227 227 226 226 227 228 229 230
325 324 324 323 322 321 318 317 316 314 312 310 308 307 306 305 303 299 297 298 297 295 293 293 294 293 291 288 286 283 279 276 273 271 269 267 266 265 263 261 259 256 254 251 246 240 238 238 234 222 214 212 210 210 212 209 208 208 204 201 205 212 216 218 219 220 220 221 223 225 227 228 227 226 226 225 225 226 227 227 226 226 228 229 230
321 321 320 319 318 316 315 313 312 310 309 307 305 303 302 302 300 297 295 294 292 290 288 286 286 288 288 286 284 283 280 277 275 272 269 265 263 262 262 261 259 256 254 252 248 242 238 236 233 225 216 210 209 210 207 201 203 210 206 199 200 207 212 216 218 219 218 218 219 222 225 226 225 225 224 223 224 224 225 227 226 227 228 228 229
316 315 315 315 313 312 311 310 309 307 305 303 301 300 299 298 296 294 293 292 291 288 286 284 283 282 283 282 281 281 281 280 277 274 270 266 262 260 259 258 257 255 253 251 248 244 240 236 232 222 211 207 207 202 196 196 202 207 204 201 207 211 211 213 217 218 218 216 216 218 220 221 222 222 221 221 222 222 223 225 226 227 227 228 228
311 310 310 309 308 308 308 307 306 305 302 300 298 297 295 293 292 291 290 289 288 286 283 282 281 281 280 279 278 278 279 279 278 276 272 268 263 260 258 255 253 252 251 250 247 244 241 239 234 219 206 210 211 204 201 205 206 203 198 200 208 210 205 209 218 220 218 215 213 215 219 221 221 220 220 220 220 220 220 223 226 226 226 226 227
306 306 305 304 304 303 303 303 302 301 299 298 297 297 294 291 289 289 288 287 285 283 281 278 278 278 277 276 276 276 276 276 277 275 273 270 266 262 259 256 252 249 247 247 246 244 241 241 239 228 215 217 216 210 209 209 205 201 201 201 203 199 195 201 214 218 217 213 210 214 220 221 220 220 220 220 219 219 221 223 225 226 225 225 225
302 301 301 301 300 300 299 298 297 296 296 295 295 295 293 292 291 290 288 287 285 282 280 278 277 276 275 274 273 272 271 271 272 272 270 269 267 263 261 257 253 250 247 245 245 244 242 241 242 236 228 225 220 212 210 209 204 203 204 203 202 200 198 202 206 211 213 210 205 211 220 220 217 217 219 220 220 219 221 222 223 224 224 224 223
299 298 298 298 297 296 295 294 293 293 292 292 293 293 292 292 292 291 290 288 286 283 280 278 277 276 276 274 272 269 268 268 268 266 265 266 265 263 261 258 254 252 249 246 244 243 243 242 242 241 237 232 226 218 213 209 204 201 202 204 207 206 205 209 211 211 210 206 202 206 217 218 214 214 217 220 220 219 220 221 221 222 222 222 220
297 296 296 296 295 293 292 291 291 290 289 290 291 292 293 293 293 292 291 288 286 284 281 278 276 275 275 274 272 270 269 266 264 261 260 261 262 261 259 256 253 251 249 247 245 243 242 241 243 245 244 239 235 229 220 212 207 204 204 206 207 208 211 218 219 215 214 209 203 201 210 215 211 210 215 218 218 217 218 218 217 218 219 218 216
295 295 294 294 293 292 291 290 290 289 288 289 292 294 295 295 295 294 291 288 285 283 282 280 277 275 274 273 272 271 270 268 264 259 257 257 257 257 255 253 252 250 248 246 245 243 240 238 240 244 247 245 242 239 229 218 215 214 213 213 213 213 215 221 222 218 217 213 204 198 205 210 205 206 214 215 214 215 215 214 214 215 215 214 213
294 293 292 292 291 290 291 291 290 289 289 290 293 296 297 297 297 296 293 289 286 283 280 279 277 276 274 273 271 270 269 268 266 263 259 256 254 253 252 252 251 249 248 248 247 245 242 240 239 242 245 246 245 243 238 227 220 218 216 217 217 214 213 218 219 215 214 211 205 201 203 201 199 205 211 211 210 211 211 210 210 211 211 210 210
296 294 293 292 290 290 290 291 291 291 291 292 296 298 298 298 298 297 295 291 287 283 280 278 277 277 276 273 272 270 269 268 267 266 263 257 253 250 249 250 250 248 248 249 249 247 245 244 243 243 244 243 242 243 242 237 228 217 209 209 212 209 206 210 215 212 210 208 205 203 202 199 198 202 204 204 206 207 207 207 207 206 207 206 206
295 294 293 292 291 290 290 291 292 292 292 294 297 299 298 297 296 295 293 290 287 283 282 281 279 278 276 274 272 270 269 267 266 265 262 257 253 250 248 248 247 246 247 248 248 246 245 245 245 245 245 243 240 240 240 240 234 219 209 210 211 205 203 212 215 206 207 210 206 201 201 201 196 193 190 189 199 206 205 204 203 200 199 201 203
294 294 293 292 291 290 290 290 291 291 292 293 297 298 298 296 295 293 290 287 285 283 284 284 283 281 278 276 273 271 270 269 268 266 262 257 253 249 247 246 244 243 246 247 245 242 241 242 242 242 243 242 240 238 236 237 235 224 217 217 213 204 205 215 212 196 199 217 208 199 197 194 186 185 183 173 179 210 207 203 202 198 196 196 199